When you browse on this site, cookies collect data to enhance your experience and personalize the content and advertising you see.
Visit our Privacy Policy to learn more. By continuing to use the site, you agree to this use of cookies and data.
  • In Hungary
  • List of Countries
  • For 7 days
  • Water Temperature
  • Weather Map
  • News
  • Weather Widgets
  • user-avatar
    Login

    Hourly Weather Kalinnaya

    Today, 23 January, Thursday

    Time Temperature Precipitation Wind Pressure Humidity
    00:00 -4°C° 0.1 mm 3 mps 735 mmHg 95%
    01:00 -4°C° 0.1 mm 4 mps 736 mmHg 93%
    02:00 -4°C° 0.1 mm 4 mps 736 mmHg 91%
    03:00 -5°C° 0.1 mm 5 mps 737 mmHg 89%
    04:00 -6°C° 0 mm 5 mps 737 mmHg 89%
    05:00 -6°C° 0 mm 5 mps 737 mmHg 88%
    06:00 -6°C° 0 mm 5 mps 738 mmHg 88%
    07:00 -7°C° 0 mm 5 mps 738 mmHg 88%
    08:00 -7°C° 0 mm 4 mps 739 mmHg 88%
    09:00 -7°C° 0 mm 4 mps 739 mmHg 87%
    10:00 -6°C° 0.1 mm 5 mps 740 mmHg 85%
    11:00 -6°C° 0.1 mm 6 mps 741 mmHg 82%
    12:00 -6°C° 0.1 mm 6 mps 741 mmHg 79%
    13:00 -6°C° 0 mm 6 mps 742 mmHg 78%
    14:00 -6°C° 0 mm 5 mps 742 mmHg 77%
    15:00 -7°C° 0 mm 5 mps 743 mmHg 76%
    16:00 -7°C° 0.1 mm 5 mps 743 mmHg 77%
    17:00 -8°C° 0.1 mm 5 mps 744 mmHg 77%
    18:00 -10°C° 0.1 mm 5 mps 745 mmHg 78%
    19:00 -10°C° 0 mm 5 mps 745 mmHg 79%
    20:00 -9°C° 0 mm 4 mps 746 mmHg 79%
    21:00 -10°C° 0 mm 4 mps 746 mmHg 80%
    22:00 -10°C° 0 mm 4 mps 747 mmHg 82%
    23:00 -10°C° 0 mm 4 mps 747 mmHg 83%

    Tomorrow, 24 January, Friday

    Time Temperature Precipitation Wind Pressure Humidity
    00:00 -9°C° 0 mm 3 mps 748 mmHg 85%
    01:00 -10°C° 0 mm 3 mps 748 mmHg 86%
    02:00 -10°C° 0 mm 3 mps 749 mmHg 87%
    03:00 -10°C° 0 mm 3 mps 749 mmHg 87%
    04:00 -10°C° 0 mm 3 mps 749 mmHg 88%
    05:00 -10°C° 0 mm 3 mps 749 mmHg 88%
    06:00 -10°C° 0 mm 3 mps 749 mmHg 89%
    07:00 -10°C° 0 mm 3 mps 749 mmHg 90%
    08:00 -10°C° 0 mm 3 mps 749 mmHg 91%
    09:00 -11°C° 0 mm 4 mps 749 mmHg 92%
    10:00 -10°C° 0 mm 4 mps 749 mmHg 90%
    11:00 -10°C° 0 mm 5 mps 748 mmHg 87%
    12:00 -8°C° 0 mm 5 mps 748 mmHg 85%
    13:00 -9°C° 0.1 mm 6 mps 747 mmHg 87%
    14:00 -8°C° 0.1 mm 7 mps 746 mmHg 90%
    15:00 -8°C° 0.1 mm 7 mps 745 mmHg 92%
    16:00 -7°C° 0.3 mm 7 mps 744 mmHg 93%
    17:00 -7°C° 0.3 mm 7 mps 743 mmHg 93%
    18:00 -6°C° 0.3 mm 8 mps 743 mmHg 94%
    19:00 -6°C° 0.4 mm 7 mps 742 mmHg 94%
    20:00 -6°C° 0.4 mm 7 mps 741 mmHg 95%
    21:00 -4°C° 0.4 mm 7 mps 741 mmHg 95%
    22:00 -3°C° 0.4 mm 7 mps 740 mmHg 96%
    23:00 -2°C° 0.4 mm 7 mps 739 mmHg 96%

    Day after tomorrow, 25 January, Saturday

    Time Temperature Precipitation Wind Pressure Humidity
    00:00 -1°C° 0.4 mm 7 mps 739 mmHg 97%
    01:00 -1°C° 0.2 mm 7 mps 739 mmHg 95%
    02:00 -1°C° 0.2 mm 7 mps 739 mmHg 94%
    03:00 -1°C° 0.2 mm 7 mps 739 mmHg 92%
    04:00 -1°C° 0 mm 6 mps 739 mmHg 93%
    05:00 -1°C° 0 mm 5 mps 739 mmHg 93%
    06:00 -2°C° 0 mm 4 mps 739 mmHg 94%
    07:00 -1°C° 0 mm 4 mps 739 mmHg 94%
    08:00 -1°C° 0 mm 5 mps 739 mmHg 95%
    09:00 -1°C° 0 mm 5 mps 740 mmHg 95%
    10:00 -1°C° 0.2 mm 5 mps 739 mmHg 95%
    11:00 -1°C° 0.2 mm 5 mps 739 mmHg 95%
    12:00 -2°C° 0.2 mm 6 mps 739 mmHg 95%
    13:00 -2°C° 0 mm 6 mps 739 mmHg 92%
    14:00 -2°C° 0 mm 6 mps 739 mmHg 90%
    15:00 -1°C° 0 mm 5 mps 738 mmHg 87%
    16:00 -2°C° 0.1 mm 6 mps 738 mmHg 88%
    17:00 -3°C° 0.1 mm 6 mps 738 mmHg 90%
    18:00 -3°C° 0.1 mm 6 mps 737 mmHg 91%
    19:00 -3°C° 0.1 mm 7 mps 737 mmHg 89%
    20:00 -3°C° 0.1 mm 7 mps 737 mmHg 86%
    21:00 -4°C° 0.1 mm 7 mps 738 mmHg 84%
    22:00 -4°C° 0.1 mm 7 mps 738 mmHg 84%
    23:00 -4°C° 0.1 mm 6 mps 738 mmHg 84%

    26 January, Sunday

    Time Temperature Precipitation Wind Pressure Humidity
    00:00 -5°C° 0.1 mm 6 mps 738 mmHg 84%
    01:00 -5°C° 0 mm 6 mps 739 mmHg 84%
    02:00 -5°C° 0 mm 6 mps 740 mmHg 85%
    03:00 -6°C° 0 mm 6 mps 740 mmHg 85%
    04:00 -6°C° 0 mm 6 mps 741 mmHg 85%
    05:00 -6°C° 0 mm 6 mps 741 mmHg 85%
    06:00 -6°C° 0 mm 6 mps 742 mmHg 85%
    07:00 -6°C° 0 mm 6 mps 743 mmHg 85%
    08:00 -6°C° 0 mm 6 mps 744 mmHg 86%
    09:00 -6°C° 0 mm 6 mps 744 mmHg 86%
    10:00 -7°C° 0 mm 7 mps 745 mmHg 85%
    11:00 -6°C° 0 mm 7 mps 746 mmHg 83%
    12:00 -6°C° 0 mm 7 mps 747 mmHg 82%
    13:00 -6°C° 0.1 mm 7 mps 748 mmHg 81%
    14:00 -6°C° 0.1 mm 7 mps 749 mmHg 81%
    15:00 -5°C° 0.1 mm 6 mps 749 mmHg 80%
    16:00 -6°C° 0 mm 6 mps 750 mmHg 82%
    17:00 -6°C° 0 mm 5 mps 751 mmHg 83%
    18:00 -7°C° 0 mm 4 mps 752 mmHg 84%
    19:00 -7°C° 0 mm 4 mps 752 mmHg 85%
    20:00 -8°C° 0 mm 4 mps 753 mmHg 87%
    21:00 -7°C° 0 mm 3 mps 754 mmHg 88%
    22:00 -7°C° 0 mm 3 mps 754 mmHg 89%
    23:00 -8°C° 0 mm 3 mps 754 mmHg 91%

    27 January, Monday

    Time Temperature Precipitation Wind Pressure Humidity
    00:00 -8°C° 0 mm 3 mps 755 mmHg 92%
    01:00 -8°C° 0 mm 3 mps 755 mmHg 92%
    02:00 -8°C° 0 mm 3 mps 755 mmHg 92%
    03:00 -8°C° 0 mm 3 mps 755 mmHg 92%
    04:00 -8°C° 0 mm 3 mps 755 mmHg 92%
    05:00 -8°C° 0 mm 3 mps 755 mmHg 91%
    06:00 -8°C° 0 mm 3 mps 755 mmHg 90%
    07:00 -8°C° 0 mm 4 mps 755 mmHg 89%
    08:00 -8°C° 0 mm 4 mps 755 mmHg 87%
    09:00 -7°C° 0 mm 4 mps 755 mmHg 86%
    10:00 -7°C° 0.1 mm 4 mps 755 mmHg 88%
    11:00 -6°C° 0.1 mm 5 mps 755 mmHg 91%
    12:00 -5°C° 0.1 mm 5 mps 755 mmHg 94%
    13:00 -5°C° 0.3 mm 5 mps 754 mmHg 94%
    14:00 -4°C° 0.3 mm 5 mps 754 mmHg 94%
    15:00 -4°C° 0.3 mm 5 mps 753 mmHg 94%
    16:00 -4°C° 0.1 mm 5 mps 753 mmHg 94%
    17:00 -4°C° 0.1 mm 5 mps 753 mmHg 94%
    18:00 -4°C° 0.1 mm 5 mps 753 mmHg 94%
    19:00 -4°C° 0 mm 5 mps 752 mmHg 94%
    20:00 -4°C° 0 mm 5 mps 752 mmHg 94%
    21:00 -4°C° 0 mm 5 mps 752 mmHg 93%
    22:00 -4°C° 0.1 mm 5 mps 752 mmHg 94%
    23:00 -3°C° 0.1 mm 4 mps 751 mmHg 95%

    28 January, Tuesday

    Time Temperature Precipitation Wind Pressure Humidity
    00:00 -3°C° 0.1 mm 4 mps 751 mmHg 96%
    01:00 -3°C° 0.2 mm 4 mps 751 mmHg 96%
    02:00 -3°C° 0.2 mm 4 mps 750 mmHg 96%
    03:00 -3°C° 0.2 mm 4 mps 750 mmHg 96%
    04:00 -3°C° 0.2 mm 4 mps 749 mmHg 96%
    05:00 -3°C° 0.2 mm 4 mps 749 mmHg 96%
    06:00 -3°C° 0.2 mm 4 mps 748 mmHg 96%
    07:00 -3°C° 0.1 mm 4 mps 748 mmHg 96%
    08:00 -3°C° 0.1 mm 4 mps 748 mmHg 96%
    09:00 -3°C° 0.1 mm 4 mps 748 mmHg 96%
    10:00 -2°C° 0.1 mm 4 mps 748 mmHg 97%
    11:00 -2°C° 0.1 mm 4 mps 748 mmHg 97%
    12:00 -1°C° 0.1 mm 4 mps 748 mmHg 98%
    13:00 0°C° 0.1 mm 3 mps 747 mmHg 98%
    14:00 0°C° 0.1 mm 3 mps 747 mmHg 98%
    15:00 +1°C° 0.1 mm 2 mps 747 mmHg 98%
    16:00 +1°C° 0.1 mm 2 mps 747 mmHg 98%
    17:00 +1°C° 0.1 mm 2 mps 748 mmHg 98%
    18:00 +2°C° 0.1 mm 1 mps 748 mmHg 98%
    19:00 +2°C° 0.1 mm 1 mps 748 mmHg 98%
    20:00 +1°C° 0.1 mm 1 mps 749 mmHg 98%
    21:00 +1°C° 0.1 mm 1 mps 749 mmHg 98%
    22:00 +1°C° 0 mm 1 mps 749 mmHg 98%
    23:00 +1°C° 0 mm 1 mps 750 mmHg 98%
    Show more